Gulfport, MS

8:06 AM CDT on March 23, 2017 (GMT -0500)
Gulfport-Biloxi Regional

Weather History for KGPT - November, 2012

Change the Weather History Date:

Thursday, November 1, 2012

  Actual Average Record
Temperature  
Mean Temperature 64 °F -  
Max Temperature 73 °F 75 °F 84 °F (1950)
Min Temperature 53 °F 57 °F 31 °F (1993)
Degree Days  
Heating Degree Days 2    
Growing Degree Days 14 (Base 50)    
Moisture  
Dew Point 53 °F    
Average Humidity 75    
Maximum Humidity 97    
Minimum Humidity 41    
Precipitation  
Precipitation 0.00 in - - ()
Sea Level Pressure  
Sea Level Pressure 30.02 in    
Wind  
Wind Speed 3 mph (NW)    
Max Wind Speed 8 mph    
Max Gust Speed -    
Visibility 9 miles    
Events      
Averages and records for this station are not official NWS values.
T = Trace of Precipitation, MM = Missing Value Source: NWS Daily Summary

Daily Weather History Graph

Daily Weather History Graph

Search for Another Location

Airport or City:

Trip Planner

Search our weather history database for the weather conditions in past years. The results will help you decide how hot, cold, wet, or windy it might be!

Date:

Astronomy

Nov. 01, 2012 Rise Set
Actual Time 7:11 AM CDT 6:08 PM CDT
Civil Twilight 6:46 AM CDT 6:33 PM CDT
Nautical Twilight 6:17 AM CDT 7:01 PM CDT
Astronomical Twilight 5:49 AM CDT 7:29 PM CDT
Moon 8:13 PM CDT (11/1) 9:35 AM CDT (11/1)
Length of Visible Light 11h 46m
Length of Day
10h 57m
Waning Gibbous, 93% of the Moon is Illuminated
Nov 1
Waning Gibbous
Nov 6
Last Quarter
Nov 13
New
Nov 20
First Quarter
Nov 28
Full

Hourly Weather History & Observations

Time (CDT) Temp. Dew Point Humidity Pressure Visibility Wind Dir Wind Speed Gust Speed Precip Events Conditions
12:53 AM 63.0 °F 59.0 °F 87% 29.98 in 10.0 mi Calm Calm - N/A   Mostly Cloudy
1:53 AM 63.0 °F 59.0 °F 87% 29.99 in 8.0 mi WNW 4.6 mph - N/A   Mostly Cloudy
2:53 AM 61.0 °F 59.0 °F 93% 29.98 in 10.0 mi Calm Calm - 0.00 in   Mostly Cloudy
3:27 AM 59.0 °F 57.2 °F 94% 29.99 in 9.0 mi NW 4.6 mph - N/A   Partly Cloudy
3:53 AM 60.1 °F 57.9 °F 93% 29.99 in 10.0 mi WNW 4.6 mph - N/A   Clear
4:53 AM 59.0 °F 57.9 °F 96% 29.99 in 7.0 mi WNW 4.6 mph - N/A   Clear
5:53 AM 55.9 °F 55.0 °F 97% 30.00 in 5.0 mi NW 3.5 mph - N/A   Clear
6:53 AM 55.0 °F 54.0 °F 96% 30.02 in 6.0 mi NNW 4.6 mph - N/A   Clear
7:53 AM 55.9 °F 55.0 °F 97% 30.04 in 7.0 mi Calm Calm - N/A   Clear
8:53 AM 61.0 °F 52.0 °F 72% 30.06 in 10.0 mi NNE 5.8 mph - N/A   Clear
9:53 AM 64.9 °F 48.0 °F 54% 30.08 in 10.0 mi NE 8.1 mph - N/A   Clear
10:53 AM 68.0 °F 46.0 °F 45% 30.09 in 10.0 mi NE 5.8 mph - N/A   Clear
11:53 AM 70.0 °F 45.0 °F 41% 30.08 in 10.0 mi Variable 3.5 mph - N/A   Clear
12:53 PM 72.0 °F 46.9 °F 41% 30.04 in 10.0 mi SSE 5.8 mph - N/A   Clear
1:53 PM 72.0 °F 46.9 °F 41% 30.02 in 10.0 mi ESE 3.5 mph - N/A   Clear
2:53 PM 71.1 °F 48.0 °F 44% 30.00 in 10.0 mi Variable 6.9 mph - N/A   Clear
3:53 PM 72.0 °F 48.0 °F 43% 29.99 in 8.0 mi SSW 5.8 mph - N/A   Clear
4:53 PM 69.1 °F 50.0 °F 51% 29.99 in 10.0 mi SSW 6.9 mph - N/A   Clear
5:53 PM 66.0 °F 52.0 °F 60% 30.00 in 10.0 mi SW 4.6 mph - N/A   Clear
6:53 PM 60.1 °F 54.0 °F 80% 30.02 in 10.0 mi Calm Calm - N/A   Clear
7:53 PM 57.9 °F 54.0 °F 87% 30.03 in 10.0 mi Calm Calm - N/A   Clear
8:53 PM 57.0 °F 54.0 °F 89% 30.04 in 10.0 mi Calm Calm - N/A   Clear
9:53 PM 55.0 °F 53.1 °F 93% 30.04 in 9.0 mi Calm Calm - N/A   Clear
10:53 PM 55.0 °F 53.1 °F 93% 30.04 in 7.0 mi Calm Calm - N/A   Clear
11:53 PM 53.1 °F 51.1 °F 93% 30.04 in 7.0 mi Calm Calm - N/A   Clear